Colorado Springs, CO

5:29 PM MST on February 23, 2017 (GMT -0700)
Usaf Academy

Weather History for KAFF - December, 2012

Change the Weather History Date:

Friday, December 7, 2012

  Actual Average Record
Temperature  
Mean Temperature 35 °F -  
Max Temperature 52 °F 42 °F 61 °F (2008)
Min Temperature 18 °F 20 °F -7 °F (2005)
Degree Days  
Heating Degree Days 30    
Moisture  
Dew Point 16 °F    
Average Humidity 55    
Maximum Humidity 86    
Minimum Humidity 21    
Precipitation  
Precipitation 0.00 in - - ()
Sea Level Pressure  
Sea Level Pressure 29.90 in    
Wind  
Wind Speed 6 mph (ESE)    
Max Wind Speed 13 mph    
Max Gust Speed 21 mph    
Visibility 10 miles    
Events      
Averages and records for this station are not official NWS values.
T = Trace of Precipitation, MM = Missing Value Source: NWS Daily Summary

Daily Weather History Graph

Daily Weather History Graph

Search for Another Location

Airport or City:

Trip Planner

Search our weather history database for the weather conditions in past years. The results will help you decide how hot, cold, wet, or windy it might be!

Date:

Astronomy

Dec. 07, 2012 Rise Set
Actual Time 7:05 AM MST 4:36 PM MST
Civil Twilight 6:35 AM MST 5:06 PM MST
Nautical Twilight 6:01 AM MST 5:39 PM MST
Astronomical Twilight 5:29 AM MST 6:12 PM MST
Moon 12:29 AM MST (12/7) 12:32 PM MST (12/7)
Length of Visible Light 10h 31m
Length of Day
9h 31m
Last Quarter, 38% of the Moon is Illuminated
Dec 7
Last Quarter
Dec 13
New
Dec 19
First Quarter
Dec 28
Full
Jan 4
Last Quarter

Hourly Weather History & Observations

Time (MST) Temp. Windchill Dew Point Humidity Pressure Visibility Wind Dir Wind Speed Gust Speed Precip Events Conditions
12:58 AM 25.5 °F - 20.3 °F 81% 29.89 in 10.0 mi Calm Calm - N/A   Clear
1:58 AM 18.1 °F 8.9 °F 14.2 °F 84% 29.92 in 10.0 mi NNW 6.9 mph - N/A   Clear
2:58 AM 18.1 °F 7.1 °F 14.7 °F 86% 29.90 in 10.0 mi NNE 9.2 mph - N/A   Clear
3:58 AM 18.9 °F 7.2 °F 14.7 °F 84% 29.88 in 10.0 mi North 10.4 mph - N/A   Clear
4:58 AM 19.9 °F 14.9 °F 15.8 °F 84% 29.92 in 10.0 mi Variable 3.5 mph - N/A   Clear
5:58 AM 20.3 °F 11.5 °F 16.3 °F 85% 29.92 in 10.0 mi North 6.9 mph - N/A   Clear
6:58 AM 30.4 °F - 15.3 °F 53% 29.89 in 10.0 mi NW 1.2 mph - N/A   Clear
7:58 AM 30.2 °F 22.6 °F 16.3 °F 56% 29.90 in 10.0 mi ENE 8.1 mph - N/A   Clear
8:58 AM 35.8 °F 29.4 °F 20.8 °F 55% 29.91 in 10.0 mi ENE 8.1 mph - N/A   Clear
9:58 AM 45.0 °F 41.8 °F 14.7 °F 30% 29.87 in 10.0 mi ENE 5.8 mph - N/A   Clear
10:58 AM 48.2 °F - 14.5 °F 26% 29.85 in 10.0 mi Calm Calm - N/A   Clear
11:58 AM 50.5 °F - 14.4 °F 24% 29.81 in 10.0 mi SSE 6.9 mph - N/A   Clear
12:58 PM 52.2 °F - 13.6 °F 22% 29.79 in 10.0 mi SE 8.1 mph 20.7 mph N/A   Partly Cloudy
1:58 PM 52.3 °F - 13.6 °F 21% 29.81 in 10.0 mi SSE 11.5 mph - N/A   Partly Cloudy
2:58 PM 51.1 °F - 13.6 °F 23% 29.83 in 10.0 mi SSE 11.5 mph - N/A   Clear
3:58 PM 47.7 °F - 13.8 °F 26% 29.86 in 10.0 mi SSE 10.4 mph - N/A   Clear
4:58 PM 39.6 °F 36.3 °F 19.9 °F 45% 29.95 in 10.0 mi East 4.6 mph - N/A   Partly Cloudy
5:58 PM 34.7 °F 27.5 °F 18.9 °F 52% 30.00 in 10.0 mi SE 9.2 mph - N/A   Clear
6:58 PM 32.2 °F 25.0 °F 18.3 °F 57% 29.99 in 10.0 mi SE 8.1 mph - N/A   Clear
7:58 PM 28.6 °F 19.9 °F 17.2 °F 63% 30.01 in 10.0 mi SSE 9.2 mph - N/A   Clear
8:58 PM 27.3 °F 19.9 °F 17.4 °F 66% 30.00 in 10.0 mi SSE 6.9 mph - N/A   Clear
9:58 PM 27.5 °F 18.6 °F 17.6 °F 66% 29.94 in 10.0 mi SE 9.2 mph - N/A   Clear
10:58 PM 28.4 °F 18.0 °F 17.1 °F 63% 29.91 in 10.0 mi SE 12.7 mph - N/A   Partly Cloudy
11:58 PM 27.7 °F 18.2 °F 17.1 °F 64% 29.89 in 10.0 mi SSE 10.4 mph - N/A   Clear